GOES 4 [-]

Last updated on Nov. 15, 2019, 4:20 a.m. UTC

1 11964U 80074A   19318.40042317 -.00000200  00000-0  00000+0 0  9995
2 11964  12.9349 325.2128 0033943  37.4745 135.6143  0.99230186103742
UTC
Height (km)
Latitude
Longitude
Inclination
Orbital Period
UTC large
Height (km)
Speed (km/s)
/
Latitude / Longitude
Inclination (degrees)
Orbital Period (minutes)
Azimuth
Elevation
Range (km)
Doppler Factor
iOS Compass Heading
iOS Angle

Next 30 passes for location: Hong Kong

Rise time Rise Azimuth (degrees) Set time Set Azimuth (degrees) Duration Max altitude (degrees)

No matching passes for this satellites